Location: Theodore Roosevelt Nature Center
(40.5943°N, 73.5104°W)
Time: 22:53:14
(UTC-05:00)

FALCONSAT 3 - Visible Passes

Search period start: 06 December 2019 00:00
Search period end: 16 December 2019 00:00
Orbit: 453 x 457 km, 35.4° (Epoch: 06 December)

Date Brightness Start Highest point End Pass type
(mag) Time Alt. Az. Time Alt. Az. Time Alt. Az.
06 Dec ? 04:29:14 19° SE 04:29:14 19° SE 04:30:52 10° ESE visible
06 Dec ? 06:03:02 10° WSW 06:06:23 36° S 06:09:44 10° ESE visible
07 Dec ? 05:27:40 25° SW 05:29:06 36° S 05:32:27 10° ESE visible
08 Dec ? 04:52:24 33° SSE 04:52:24 33° SSE 04:55:09 10° ESE visible
08 Dec ? 06:27:06 10° WSW 06:30:17 29° SSW 06:33:28 10° SE visible
09 Dec ? 04:17:04 15° ESE 04:17:04 15° ESE 04:17:50 10° ESE visible
09 Dec ? 05:50:43 16° WSW 05:52:59 30° S 05:56:13 10° SE visible
10 Dec ? 05:15:22 31° SSW 05:15:41 32° S 05:18:57 10° SE visible
11 Dec ? 04:40:01 22° SE 04:40:01 22° SE 04:41:40 10° ESE visible
11 Dec ? 06:14:25 10° WSW 06:16:43 16° SSW 06:19:02 10° SSE visible
12 Dec ? 05:38:19 15° SW 05:39:26 17° SSW 05:41:55 10° SSE visible
13 Dec ? 05:03:00 18° S 05:03:00 18° S 05:04:46 10° SSE visible
